{"data":{"norad_id":66158,"epoch":"2026-05-25T01:59:46.139424Z","epoch_age_seconds":68156,"freshness":"FRESH","line1":"1 66158U 25240N   26145.08317291  .00018222  00000+0  62582-3 0  9998","line2":"2 66158  53.1572  68.0430 0001019  85.2546 274.8571 15.30200701 33686","mean_motion":15.30200701,"eccentricity":0.0001019,"inclination_deg":53.1572,"raan_deg":68.043,"arg_perigee_deg":85.2546,"mean_anomaly_deg":274.8571,"bstar":0.00062582,"rev_number":3368,"period_min":94.105302595859,"perigee_km":474.51461999789,"apogee_km":475.91133272307,"semimajor_km":6853.3499763605,"source":"CELESTRAK","updated_at":"2026-05-25T13:38:21.071076Z"}}